Weather Roundup
Issued by NWS Chicago, IL

Home | Current Version | Previous Version | Graphics & Text | Print | Product List | Glossary On
Versions: 1 2 3 4 5 6 7 8 9 10 11 12 13 14 15 16 17 18 19 20 21 22 23 24 25 26 27 28 29 30 31 32 33 34 35 36 37 38 39 40 41 42 43 44 45 46 47 48 49 50
775
NZUS59 KLOT 231108
HRRLOT

CHICAGO AREA WEATHER ROUNDUP
NATIONAL WEATHER SERVICE CHICAGO/ROMEOVILLE IL
500 AM CST MON JAN 23 2017

NOTE: "FAIR" INDICATES FEW OR NO CLOUDS BELOW 12,000 FEET WITH NO
SIGNIFICANT WEATHER AND/OR OBSTRUCTIONS TO VISIBILITY.

* THESE STATIONS ARE NOT UNDER NWS QUALITY CONTROL. THEY ALSO MAY NOT
  REPORT WEATHER SUCH AS PRECIPITATION OR FOG.

ILZ005-006-012>014-019>023-231200-
NORTHEAST ILLINOIS

CITY           SKY/WX    TMP DP  RH WIND       PRES   REMARKS
OHARE          CLOUDY    37  35  92 N14       29.72R
MIDWAY         CLOUDY    39  34  82 N8        29.72R
AURORA         CLOUDY    38  35  89 NW12      29.73R
LANSING*       CLOUDY    37  37  97 N9G16     29.72R
JOLIET*        CLOUDY    39  37  93 N5        29.73R
WAUKEGAN       CLOUDY    37  35  92 NW6       29.72R
DUPAGE AIRPORT CLOUDY    38  34  85 N12       29.72R
WHEELING       CLOUDY    38  34  85 N7        29.74R
KANKAKEE*      CLOUDY    39  37  90 N10       29.72R
MORRIS*        CLOUDY    37  36  93 NW6       29.73R FOG
LEWIS AIRPORT* CLOUDY    38  37  99 N7        29.73R
NORTHERLY ISL    N/A     38  34  85 N12         N/A
$$

WIZ051-052-058>065-066-070>072-231200-
SOUTHEAST WISCONSIN

CITY           SKY/WX    TMP DP  RH WIND       PRES   REMARKS
MILWAUKEE      CLOUDY    39  36  89 NW6       29.72R
KENOSHA*       CLOUDY    37  35  92 NW7       29.72R
RACINE*        CLOUDY    38  35  89 N6        29.74R
WEST BEND      CLOUDY    34  34 100 NW5       29.72S FOG     WCI  30
$$

INZ001>003-010>013-019-020-231200-
NORTHWEST INDIANA

CITY           SKY/WX    TMP DP  RH WIND       PRES   REMARKS
GARY*          CLOUDY    37  37 100 N20       29.72R
MICHIGAN CITY* NOT AVBL
RENSSELAER*    NOT AVBL
VALPARAISO     CLOUDY    38  38 100 N13G20    29.68S FOG
$$

LMZ740>746-231200-
SOUTHERN LAKE MICHIGAN

STATION/POSITION TIME  SKY/WX   TEMP WIND        PRES    VSBY
                                AIR  DIR/SP/G
                 (UTC)          (F)  (DEG/KT/KT) (MB)    (MI)
HARRISON CRIB    1040            36  350/ 10/ 10   N/A
BURNHAM HARBOR   1100            38  350/  8/ 14   N/A
CALUMET HARBOR   1042            36  320/ 10/ 15 1006.0R
BURNS HARBOR     1040            36  360/ 11/ 15 1006.4S
MICHIGAN CITY    1040            36  330/ 16/ 17   N/A
$$

ABBREVIATIONS USED IN REMARKS
   TC - TEMPERATURE IN CELSIUS
  WCI - WIND CHILL INDEX
   HX - HEAT INDEX
  VSB - VISIBILITY
$$




USA.gov is the U.S. government's official web portal to all federal, state and local government web resources and services.